When you browse on this site, cookies collect data to enhance your experience and personalize the content and advertising you see.
Visit our Privacy Policy to learn more. By continuing to use the site, you agree to this use of cookies and data.
  • In Sweden
  • List of Countries
  • For 7 days
  • Water Temperature
  • Weather Map
  • Weather Widgets
  • user-avatar
    Login

    Hourly Weather Klagenfurt

    Today, 5 June, Friday

    Time Temperature Precipitation Wind Pressure Humidity
    00:00 +12°C° 3.5 mm 1 mps 677 mmHg 98%
    01:00 +12°C° 0 mm 1 mps 677 mmHg 98%
    02:00 +12°C° 6.9 mm 1 mps 676 mmHg 98%
    03:00 +12°C° 6.9 mm 1 mps 676 mmHg 99%
    04:00 +12°C° 6.9 mm 1 mps 676 mmHg 99%
    05:00 +12°C° 5.9 mm 1 mps 676 mmHg 99%
    06:00 +12°C° 5.9 mm 1 mps 676 mmHg 99%
    07:00 +12°C° 0 mm 1 mps 677 mmHg 98%
    08:00 +12°C° 1.1 mm 1 mps 677 mmHg 98%
    09:00 +13°C° 1.1 mm 1 mps 677 mmHg 97%
    10:00 +13°C° 1.1 mm 1 mps 678 mmHg 96%
    11:00 +13°C° 0.6 mm 1 mps 678 mmHg 95%
    12:00 +13°C° 0.6 mm 1 mps 678 mmHg 93%
    13:00 +14°C° 0.6 mm 1 mps 679 mmHg 92%
    14:00 +14°C° 0.4 mm 1 mps 679 mmHg 88%
    15:00 +15°C° 0.4 mm 1 mps 679 mmHg 85%
    16:00 +15°C° 0.4 mm 1 mps 679 mmHg 81%
    17:00 +14°C° 0.2 mm 1 mps 680 mmHg 84%
    18:00 +13°C° 0.2 mm 0 mps 680 mmHg 87%
    19:00 +12°C° 0.2 mm 0 mps 680 mmHg 89%
    20:00 +12°C° 0.1 mm 0 mps 681 mmHg 91%
    21:00 +11°C° 0.1 mm 0 mps 681 mmHg 92%
    22:00 +10°C° 0.1 mm 0 mps 682 mmHg 93%
    23:00 +10°C° 0 mm 0 mps 682 mmHg 94%

    Tomorrow, 6 June, Saturday

    Time Temperature Precipitation Wind Pressure Humidity
    00:00 +10°C° 0 mm 0 mps 682 mmHg 95%
    01:00 +9°C° 0 mm 0 mps 683 mmHg 95%
    02:00 +9°C° 0 mm 0 mps 683 mmHg 95%
    03:00 +9°C° 0 mm 0 mps 683 mmHg 96%
    04:00 +9°C° 0 mm 0 mps 683 mmHg 96%
    05:00 +11°C° 0 mm 0 mps 684 mmHg 94%
    06:00 +12°C° 0 mm 0 mps 684 mmHg 92%
    07:00 +13°C° 0 mm 0 mps 684 mmHg 90%
    08:00 +14°C° 0.2 mm 0 mps 685 mmHg 86%
    09:00 +16°C° 0.2 mm 1 mps 685 mmHg 82%
    10:00 +18°C° 0.2 mm 1 mps 685 mmHg 78%
    11:00 +19°C° 0.4 mm 1 mps 685 mmHg 75%
    12:00 +20°C° 0.4 mm 1 mps 685 mmHg 73%
    13:00 +21°C° 0.4 mm 1 mps 684 mmHg 70%
    14:00 +20°C° 0.5 mm 1 mps 684 mmHg 72%
    15:00 +20°C° 0.5 mm 1 mps 684 mmHg 74%
    16:00 +20°C° 0.5 mm 1 mps 684 mmHg 76%
    17:00 +19°C° 0.6 mm 1 mps 683 mmHg 82%
    18:00 +18°C° 0.6 mm 1 mps 683 mmHg 88%
    19:00 +16°C° 0.6 mm 1 mps 683 mmHg 94%
    20:00 +15°C° 0.1 mm 1 mps 683 mmHg 94%
    21:00 +13°C° 0.1 mm 1 mps 683 mmHg 95%
    22:00 +12°C° 0.1 mm 1 mps 683 mmHg 96%
    23:00 +12°C° 0 mm 1 mps 683 mmHg 96%

    Day after tomorrow, 7 June, Sunday

    Time Temperature Precipitation Wind Pressure Humidity
    00:00 +11°C° 0 mm 1 mps 683 mmHg 96%
    01:00 +11°C° 0 mm 1 mps 683 mmHg 96%
    02:00 +11°C° 0 mm 1 mps 683 mmHg 96%
    03:00 +11°C° 0 mm 1 mps 683 mmHg 96%
    04:00 +10°C° 0 mm 1 mps 682 mmHg 96%
    05:00 +11°C° 0 mm 0 mps 683 mmHg 94%
    06:00 +12°C° 0 mm 0 mps 683 mmHg 93%
    07:00 +14°C° 0 mm 0 mps 684 mmHg 92%
    08:00 +16°C° 0.1 mm 1 mps 684 mmHg 86%
    09:00 +18°C° 0.1 mm 1 mps 684 mmHg 81%
    10:00 +20°C° 0.1 mm 1 mps 685 mmHg 75%
    11:00 +18°C° 1.1 mm 2 mps 685 mmHg 80%
    12:00 +18°C° 1.1 mm 2 mps 684 mmHg 84%
    13:00 +18°C° 1.1 mm 2 mps 684 mmHg 88%
    14:00 +18°C° 0.9 mm 2 mps 684 mmHg 86%
    15:00 +18°C° 0.9 mm 2 mps 684 mmHg 84%
    16:00 +18°C° 0.9 mm 2 mps 684 mmHg 82%
    17:00 +17°C° 0.4 mm 2 mps 684 mmHg 85%
    18:00 +16°C° 0.4 mm 1 mps 684 mmHg 89%
    19:00 +15°C° 0.4 mm 1 mps 684 mmHg 92%
    20:00 +14°C° 2.5 mm 1 mps 684 mmHg 94%
    21:00 +14°C° 2.5 mm 1 mps 684 mmHg 96%
    22:00 +13°C° 2.5 mm 1 mps 684 mmHg 98%
    23:00 +12°C° 0.2 mm 1 mps 684 mmHg 98%

    8 June, Monday

    Time Temperature Precipitation Wind Pressure Humidity
    00:00 +11°C° 0.2 mm 0 mps 684 mmHg 97%
    01:00 +11°C° 0.2 mm 0 mps 684 mmHg 97%
    02:00 +11°C° 1.1 mm 0 mps 684 mmHg 98%
    03:00 +11°C° 1.1 mm 0 mps 684 mmHg 98%
    04:00 +11°C° 1.1 mm 0 mps 684 mmHg 98%
    05:00 +12°C° 1.7 mm 0 mps 684 mmHg 98%
    06:00 +12°C° 1.7 mm 0 mps 684 mmHg 98%
    07:00 +12°C° 1.7 mm 0 mps 685 mmHg 98%
    08:00 +12°C° 0.9 mm 0 mps 685 mmHg 98%
    09:00 +13°C° 0.9 mm 0 mps 685 mmHg 97%
    10:00 +13°C° 0.9 mm 0 mps 686 mmHg 97%
    11:00 +13°C° 0.5 mm 0 mps 686 mmHg 95%
    12:00 +14°C° 0.5 mm 0 mps 686 mmHg 94%
    13:00 +15°C° 0.5 mm 0 mps 686 mmHg 92%
    14:00 +15°C° 0.7 mm 0 mps 686 mmHg 88%
    15:00 +16°C° 0.7 mm 0 mps 686 mmHg 85%
    16:00 +17°C° 0.7 mm 0 mps 686 mmHg 81%
    17:00 +16°C° 0.6 mm 0 mps 686 mmHg 85%
    18:00 +15°C° 0.6 mm 0 mps 686 mmHg 89%
    19:00 +14°C° 0.6 mm 0 mps 686 mmHg 92%
    20:00 +13°C° 0.2 mm 0 mps 687 mmHg 94%
    21:00 +13°C° 0.2 mm 0 mps 687 mmHg 95%
    22:00 +12°C° 0.2 mm 0 mps 687 mmHg 96%
    23:00 +12°C° 0.1 mm 0 mps 687 mmHg 96%

    9 June, Tuesday

    Time Temperature Precipitation Wind Pressure Humidity
    00:00 +12°C° 0.1 mm 0 mps 687 mmHg 97%
    01:00 +11°C° 0.1 mm 0 mps 687 mmHg 97%
    02:00 +11°C° 0 mm 0 mps 687 mmHg 98%
    03:00 +11°C° 0 mm 0 mps 686 mmHg 98%
    04:00 +11°C° 0 mm 0 mps 686 mmHg 98%
    05:00 +11°C° 0 mm 0 mps 687 mmHg 97%
    06:00 +12°C° 0 mm 0 mps 687 mmHg 96%
    07:00 +13°C° 0 mm 0 mps 687 mmHg 95%
    08:00 +15°C° 0.2 mm 1 mps 687 mmHg 90%
    09:00 +16°C° 0.2 mm 1 mps 687 mmHg 86%
    10:00 +18°C° 0.2 mm 1 mps 688 mmHg 81%
    11:00 +19°C° 0.7 mm 1 mps 687 mmHg 80%
    12:00 +19°C° 0.7 mm 1 mps 687 mmHg 79%
    13:00 +20°C° 0.7 mm 1 mps 687 mmHg 78%
    14:00 +20°C° 1.1 mm 1 mps 687 mmHg 79%
    15:00 +20°C° 1.1 mm 1 mps 687 mmHg 81%
    16:00 +20°C° 1.1 mm 1 mps 686 mmHg 82%
    17:00 +19°C° 1.3 mm 1 mps 686 mmHg 86%
    18:00 +18°C° 1.3 mm 1 mps 686 mmHg 89%
    19:00 +15°C° 1.3 mm 0 mps 686 mmHg 93%
    20:00 +15°C° 2.2 mm 1 mps 686 mmHg 94%
    21:00 +14°C° 2.2 mm 1 mps 686 mmHg 96%
    22:00 +14°C° 2.2 mm 1 mps 687 mmHg 98%
    23:00 +14°C° 4.2 mm 1 mps 686 mmHg 98%

    10 June, Wednesday

    Time Temperature Precipitation Wind Pressure Humidity
    00:00 +14°C° 4.2 mm 1 mps 686 mmHg 98%
    01:00 +13°C° 4.2 mm 1 mps 686 mmHg 98%
    02:00 +12°C° 1.2 mm 0 mps 686 mmHg 98%
    03:00 +12°C° 1.2 mm 0 mps 686 mmHg 98%
    04:00 +12°C° 1.2 mm 0 mps 686 mmHg 98%
    05:00 +12°C° 1.5 mm 0 mps 686 mmHg 98%
    06:00 +12°C° 1.5 mm 0 mps 686 mmHg 98%
    07:00 +12°C° 1.5 mm 0 mps 686 mmHg 98%
    08:00 +13°C° 1.4 mm 0 mps 687 mmHg 98%
    09:00 +13°C° 1.4 mm 0 mps 687 mmHg 97%
    10:00 +14°C° 1.4 mm 0 mps 687 mmHg 96%
    11:00 +15°C° 1 mm 0 mps 687 mmHg 92%
    12:00 +19°C° 1 mm 1 mps 687 mmHg 88%
    13:00 +20°C° 1 mm 1 mps 687 mmHg 85%
    14:00 +20°C° 1.5 mm 1 mps 687 mmHg 86%
    15:00 +20°C° 1.5 mm 1 mps 687 mmHg 87%
    16:00 +19°C° 1.5 mm 1 mps 687 mmHg 88%
    17:00 +16°C° 0.8 mm 0 mps 687 mmHg 90%
    18:00 +16°C° 0.8 mm 0 mps 687 mmHg 91%
    19:00 +15°C° 0.8 mm 0 mps 687 mmHg 93%
    20:00 +14°C° 0.6 mm 0 mps 687 mmHg 93%
    21:00 +13°C° 0.6 mm 0 mps 687 mmHg 93%
    22:00 +14°C° 0.6 mm 1 mps 687 mmHg 93%
    23:00 +13°C° 0.6 mm 1 mps 687 mmHg 94%
    Show more